Flag for Norway Weather past 2 weeks in Flekkefjord, Norway

Now
57 °F

Cool.


Feels Like: 54 °F
Forecast: 55 / 59 °F
Wind: 14 mph from Northwest

Location: Lista Fyr

Current Time: Aug 20, 2014 at 7:23:54 PM

Latest Report: Aug 20, 2014 at 6:00 PM


Visibility: N/A

Pressure: 29.63 "Hg

Humidity: 74%

Dew point: 48 °F

Location of FlekkefjordLocation

Historic Weather in Flekkefjord — Graph

°F

Flekkefjord temperature yesterday

Maximum temperature yesterday: 61 °F (at 12:00 PM)
Minimum temperature yesterday: 56 °F (at 5:00 AM)
Average temperature yesterday: 58 °F

Past Weeks' High & Low Weather Summary

 TemperatureHumidityPressure
High71 °F (Aug 6, 3:00 PM)93% (Aug 11, 3:00 AM)30.01 "Hg (Aug 11, 3:00 AM)
Low46 °F (Aug 18, 6:00 AM)51% (Aug 6, 3:00 PM)29.21 "Hg (Aug 18, 2:00 PM)
Average61 °F78%29.59 "Hg
* Reported Aug 5 6:00 PM — Aug 20 6:00 PM, Flekkefjord, Weather by CustomWeather, © 2014

Note: Actual official high and low records may vary slightly from our data, if they occured in-between our weather recording intervals... More about our weather records

Advertising

Flekkefjord weather history for previous 24 hours

 ConditionsComfort  
Time TempWeatherWind HumidityBarometerVisibility
6:00 PM
Aug 20
57 °FCool.14 mph74%29.63 "HgN/A
5:00 PM57 °FCool.15 mph78%29.62 "HgN/A
4:00 PM56 °FCool.10 mph81%29.62 "HgN/A
3:00 PM56 °FCool.14 mph79%29.60 "HgN/A
2:00 PM56 °FSprinkles. Overcast.14 mph84%29.59 "Hg6 mi
1:00 PM56 °FCool.14 mph79%29.57 "HgN/A
12:00 PM56 °FCool.14 mph80%29.56 "HgN/A
11:00 AM56 °FPassing clouds.12 mph78%29.56 "Hg12 mi
10:00 AM56 °FCool.12 mph84%29.55 "HgN/A
9:00 AM56 °FCool.10 mph81%29.53 "HgN/A
8:00 AM55 °FCool.12 mph85%29.50 "HgN/A
7:00 AM56 °FCool.12 mph83%29.50 "HgN/A
6:00 AM56 °FCool.13 mph84%29.50 "HgN/A
5:00 AM55 °FCool.12 mph83%29.50 "HgN/A
4:00 AM55 °FCool.12 mph83%29.50 "HgN/A
3:00 AM55 °FCool.12 mph86%29.50 "HgN/A
2:00 AM55 °FCool.12 mph88%29.50 "HgN/A
1:00 AM55 °FCool.12 mph87%29.47 "HgN/A
12:00 AM55 °FCool.13 mph88%29.47 "HgN/A
11:00 PM
Aug 19
56 °FCool.13 mph83%29.47 "HgN/A
10:00 PM56 °FCool.14 mph84%29.47 "HgN/A
9:00 PM57 °FCool.15 mph82%29.44 "HgN/A
8:00 PM57 °FPassing clouds.15 mph84%29.44 "Hg16 mi
7:00 PM57 °FCool.16 mph81%29.41 "HgN/A
Weather by CustomWeather, © 2014

See weather overviewHow to use our weather pages